Simultaneous Nadir Overpasses (SNOs) Predictions

Prediction of SNOs between AQUA and NOAA-19 Satellite Orbit:

Table of predicted SNOs for the next 14.0 days since TLE Epoch: 8/23/2014
Index Date (AQUA) Time (AQUA) Lat,Lon (AQUA) SZA (AQUA ) Date (NOAA-19) Time (NOAA-19) Lat,Lon (NOAA-19) SZA (NOAA-19 ) Distance(km) Time Diff (sec)
1 08/24/2014 15:13:53 -77.86, 113.63 112.53 08/24/2014 15:13:06 -77.85, 113.68 112.52 1.20 47
2 08/24/2014 16:03:11 77.44, -76.95 66.96 08/24/2014 16:03:56 77.45, -77.04 66.97 2.50 45
3 08/26/2014 19:58:49 -79.52, 33.35 109.53 08/26/2014 19:57:35 -79.37, 32.74 109.59 21.33 74
4 08/26/2014 20:47:30 77.59,-148.66 67.90 08/26/2014 20:47:47 77.59,-148.66 67.90 0.15 17
5 08/29/2014 01:31:48 77.71, 139.77 68.81 08/29/2014 01:31:37 77.70, 139.88 68.80 2.91 11
6 08/31/2014 06:16:08 77.93, 67.74 69.86 08/31/2014 06:15:30 77.93, 67.75 69.87 0.14 38
7 08/31/2014 07:05:24 -77.49,-122.70 110.69 08/31/2014 07:06:21 -77.50,-122.79 110.68 2.34 57
8 09/02/2014 11:00:28 78.16, -4.37 70.93 09/02/2014 10:59:23 78.17, -4.46 70.96 2.24 65
9 09/02/2014 11:49:43 -77.67, 165.46 109.68 09/02/2014 11:50:12 -77.68, 165.38 109.67 2.20 29




NCC Satellite Simultaneous Nadir Overpasses (SNOs) Prediction Service
